#timestamp,LO_Frequency,Hit,StdDev 
1634356815.5,286047002.6,N
1634356835.3,286047002.3,N
1634356855.2,286047002.8,N
1634356875.9,286047002.8,N
1634356895.7,286047002.4,N
1634356915.6,286047002.0,N
1634356935.4,286047001.6,N
1634356955.2,286047002.4,N
1634356975.1,286047000.0,N
1634356976.0,286047000.0,N
1634356995.8,286046999.8,N
1634357015.7,286047000.8,N
1634357035.5,286046999.7,N
1634357055.3,286046999.8,N
1634357075.2,286046999.9,N
1634357095.0,286047002.8,N
1634357095.9,286047002.8,N
1634357115.8,286047002.5,N
1634357135.6,286047002.8,N
1634357155.4,286046999.7,N
1634357175.3,286047002.4,N
1634357195.1,286046999.8,N
1634357215.8,286047000.5,N
1634357235.7,286047001.2,N
1634357255.5,286047000.8,N
1634357275.4,286046998.3,N
1634357295.2,286046998.1,N
1634357315.0,286046998.2,N
1634357315.9,286046998.2,N
1634357335.8,286047001.2,N
1634357355.6,286046998.5,N
1634357375.4,286047001.2,N
1634357395.3,286046998.2,N
1634357415.1,286047000.7,N
1634357435.3,286047002.4,N
1634357455.2,286046999.9,N
1634357475.9,286047000.3,N
1634357495.7,286047001.2,N
1634357515.6,286047000.5,N
1634357535.4,286047000.1,N
1634357555.2,286046999.8,N
1634357575.1,286046999.9,N
1634357576.0,286046999.9,N
1634357595.8,286047000.2,N
1634357615.7,286047000.3,N
1634357635.5,286047001.2,N
1634357655.3,286047000.8,N
1634357675.2,286047000.0,N
1634357695.9,286046999.7,N
1634357715.7,286046999.9,N
1634357735.6,286046999.7,N
1634357755.4,286046999.7,N
1634357775.3,286047001.2,N
1634357795.1,286047000.7,N
1634357796.0,286047000.7,N
1634357815.8,286047000.5,N
1634357835.7,286047001.2,N
1634357855.5,286047000.3,N
1634357875.3,286046999.8,N
1634357895.2,286047002.7,Y
1634357915.0,286047000.2,P
1634357915.9,286047000.2,N
1634357935.8,286046999.8,P
1634357955.6,286047000.2,N
1634357975.4,286047002.6,Y
1634357995.3,286047002.1,P
1634358015.1,286047001.5,N
1634358035.9,286047000.8,N
1634358055.7,286046998.7,N
1634358075.5,286046999.6,N
1634358095.4,286046999.5,N
1634358115.2,286046996.9,N
1634358135.0,286046999.6,N
1634358135.9,286046999.6,N
1634358155.8,286046999.3,N
1634358175.6,286046999.2,N
1634358195.5,286046999.4,N
1634358215.3,286046997.3,N
1634358235.1,286046997.2,N
1634358255.9,286046998.3,N
1634358275.7,286046997.2,N
1634358295.5,286046996.5,N
1634358315.4,286046996.5,N
1634358335.2,286046999.6,N
1634358355.0,286046998.8,N
1634358356.0,286046998.8,N
1634358375.8,286046998.8,N
1634358395.6,286047000.7,N
1634358415.5,286047001.2,N
1634358435.3,286046999.1,N
1634358455.1,286046998.1,N
1634358475.9,286047000.8,N
1634358495.7,286046998.8,N
1634358515.5,286046996.9,N
1634358535.4,286046997.3,N
1634358555.2,286046999.6,N
1634358575.1,286046997.1,N
1634358576.0,286046997.1,N
1634358595.8,286046996.8,N
1634358615.6,286046995.8,Y
1634358635.5,286046999.2,P
1634358655.3,286046996.7,P
1634358675.2,286046996.5,P
1634358695.9,286046998.3,N
1634358715.7,286046996.6,Y
1634358735.6,286046998.2,P
1634358755.4,286046998.8,P
1634358775.2,286046998.5,P
1634358795.1,286047000.4,N
1634358796.0,286047000.4,N
1634358815.8,286047000.6,N
1634358835.7,286047000.0,N
1634358855.5,286047002.8,N
1634358875.3,286047000.0,N
1634358925.2,286047000.0,E
1634358935.1,286047000.0,N
1634358955.9,286047000.3,P
1634358975.7,286047000.0,N
1634358995.5,286047001.2,Y
1634359015.4,286047000.7,P
1634359035.2,286047000.9,N
1634359055.1,286046998.3,P
1634359056.0,286046998.3,N
1634359075.8,286046999.1,N
1634359095.6,286046999.2,N
1634359115.5,286047000.6,N
1634359135.3,286047000.9,N
1634359155.2,286047000.8,N
1634359175.9,286046999.0,N
1634359195.7,286046999.0,N
1634359215.6,286046999.2,N
1634359235.4,286046999.4,N
1634359255.2,286046999.3,N
1634359275.1,286046999.3,N
1634359276.0,286046999.3,N
1634359295.8,286046998.4,N
1634359315.7,286046999.1,N
1634359335.5,286046999.5,N
1634359355.3,286046997.3,Y
1634359375.2,286046997.6,P
1634359395.0,286046996.5,P
1634359395.9,286046996.5,N
1634359415.8,286046999.6,N
1634359435.6,286046997.7,N
1634359455.4,286046998.4,N
1634359475.3,286046998.5,N
1634359495.1,286047001.0,N
1634359515.8,286046999.2,N
1634359535.7,286046999.2,N
1634359555.5,286046997.8,N
1634359575.4,286046997.1,N
1634359595.2,286046996.9,N
1634359615.0,286046996.9,N
1634359615.9,286046996.9,N
1634359635.8,286046997.1,N
1634359655.6,286046997.5,N
1634359675.4,286046997.9,N
1634359695.3,286046995.6,Y
1634359715.1,286046996.5,P
1634359735.9,286046998.4,N
1634359755.7,286046998.6,N
1634359775.5,286046996.5,Y
1634359795.4,286047000.6,P
1634359815.2,286047002.1,N
1634359835.1,286047001.8,N
1634359836.0,286047001.8,N
1634359855.8,286047004.2,N
1634359875.6,286047001.6,N
1634359895.5,286047002.2,N
1634359915.3,286047000.7,N
1634359935.1,286047000.0,N
1634359955.9,286047001.1,N
1634359975.7,286046998.3,N
1634359995.6,286046998.7,N
1634360015.4,286047001.0,N
1634360035.2,286047001.0,N
1634360055.1,286047000.3,N
1634360056.0,286047000.3,N
1634360075.8,286047000.2,N
1634360095.6,286047002.2,N
1634360115.5,286047001.5,N
1634360135.3,286047003.1,N
1634360155.2,286047004.3,N
1634360175.9,286047003.7,N
1634360195.7,286047004.0,N
1634360215.6,286047001.3,N
1634360235.4,286047002.8,N
1634360255.3,286047002.3,N
1634360275.1,286047002.8,N
1634360276.0,286047002.8,N
1634360295.8,286047000.0,N
1634360315.7,286046999.8,N
1634360335.5,286047002.0,N
1634360355.3,286047000.2,N
1634360375.2,286046999.9,N
1634360395.0,286047000.2,N
1634360395.9,286047000.2,N
